Погода в Чиуауа

Мексика     28˚38′09″N   106˚04′32″W
темп.,
°C
ветер,
м/с
пор.,
м/с
влажн.,
%
обл.,
%
осадки,
мм/ч
давл.,
гПа
погр.,
м
5 декабря, сб
сб523:00+2˚сз487436 0.0 1024192
02:00+1˚ссз46780 0.0 1026167
05:00+1˚с467937 0.0 1027241
08:00+2˚с468196 0.0 1029440
11:00+5˚с566096 0.0 10271013
14:00+8˚с673686 0.0 10241411
17:00+6˚св234143 0.0 1025331
20:00+2˚ююз11490 0.0 102955
6 декабря, вс
вс623:00+2˚зюз12560 0.0 102955
02:00+1˚юз12610 0.0 102834
05:00зсз01590 0.0 102822
08:00+6˚юз11340 0.0 102950
11:00+11˚ссв11230 0.0 1026800
14:00+13˚св32200 0.0 10221117
17:00+8˚всв12280 0.0 1022165
20:00+5˚вюв11330 0.0 102422
7 декабря, пн
пн723:00+4˚ююз11390 0.0 102523
02:00+3˚юз11540 0.0 102422
05:00+2˚ю11550 0.0 102422
08:00+8˚ю123312 0.0 102535
11:00+13˚юв342253 0.0 1023968
14:00+15˚юв5518100 0.0 10181318
17:00+11˚в242592 0.0 1019285
20:00+7˚ссв013529 0.0 102222
8 декабря, вт
вт823:00+5˚вюв013614 0.0 102422
02:00+4˚сз00440 0.0 102322
05:00+3˚юв00460 0.0 102322
08:00+9˚з00320 0.0 102533
11:00+14˚вюв22210 0.0 1023747
14:00+17˚вюв33190 0.0 10191224
17:00+12˚вюв34250 0.0 1020146
20:00+8˚юз11330 0.0 102326
9 декабря, ср
ср923:00+7˚ююз11380 0.0 102322
02:00+6˚ю11440 0.0 102322
05:00+6˚ю12470 0.0 102322
08:00+11˚ю12320 0.0 102424
11:00+17˚юв23230 0.0 1021673
14:00+20˚юв44230 0.0 10151325
17:00+17˚юв45300 0.0 1014134
20:00+13˚ю233516 0.0 101547